Location: Colossi of Memnon
(25.7167°N, 32.6167°E)
Time: 02:50:09
(UTC+00:00)

H-2A R/B - Pass Details

Date: 05 March 2021
Orbit: 528 x 652 km, 98.3° (Epoch: 21 April)

Event Time Altitude Azimuth Distance (km) Brightness Sun altitude
Rises 03:40:50 0° 23° (NNE) 2,734 6.2 -7.1°
Reaches altitude 10° 03:43:08 10° 32° (NNE) 1,819 5.4 -6.6°
Maximum altitude 03:46:44 35° 99° (E) 881 4.3 -5.8°
Drops below altitude 10° 03:50:14 10° 166° (SSE) 1,772 5.2 -5.0°
Sets 03:52:26 0° 176° (S) 2,652 5.9 -4.5°
